Location: Schommer Observatory
(40.5200°N, 74.4500°W)
Time: 19:27:36
(UTC-04:00)

Vanguard 1 - Visible Passes

Search period start: 17 July 2018 00:00
Search period end: 27 July 2018 00:00
Orbit: 650 x 3832 km, 34.2° (Epoch: 16 July)

Date Brightness Start Highest point End Pass type
(mag) Time Alt. Az. Time Alt. Az. Time Alt. Az.
17 Jul 10.0 03:09:30 38° SSE 03:09:30 38° SSE 03:14:05 10° ESE visible
18 Jul 10.0 03:29:41 36° S 03:29:41 36° S 03:34:56 10° ESE visible
19 Jul 10.2 03:49:58 30° SSW 03:50:26 31° SSW 03:55:40 10° SE visible
19 Jul 11.8 21:09:56 10° S 21:11:50 11° SSE 21:13:33 10° SE visible
20 Jul 10.5 04:10:21 23° SSW 04:11:16 24° SSW 04:16:09 10° SE visible
20 Jul 11.4 21:28:11 10° SSW 21:32:50 16° SSE 21:34:28 15° SE visible
21 Jul 10.9 04:30:49 17° SW 04:32:08 18° SSW 04:36:17 10° SSE visible
21 Jul 11.1 21:47:52 10° SSW 21:53:47 22° SSE 21:55:00 21° SE visible
22 Jul 11.2 04:51:23 12° SW 04:53:00 13° SSW 04:55:42 10° S visible
22 Jul 10.7 22:08:06 10° SW 22:14:43 28° SSE 22:15:26 27° SSE visible
23 Jul 10.5 22:28:40 10° SW 22:35:38 34° S 22:35:46 34° SSE visible
24 Jul 10.4 22:49:29 10° WSW 22:55:59 39° S 22:55:59 39° S visible
25 Jul 11.5 20:48:04 10° SW 20:56:57 30° SSE 21:02:34 10° ESE visible
25 Jul 10.5 23:10:27 10° WSW 23:16:07 39° SSW 23:16:07 39° SSW visible
26 Jul 11.1 21:08:33 10° SW 21:17:56 36° SSE 21:23:26 11° ESE visible
26 Jul 10.8 23:31:31 10° WSW 23:36:09 33° SW 23:36:09 33° SW visible
